Time,TemperatureF,DewpointF,PressureIn,WindDirection,WindDirectionDegrees,WindSpeedMPH,WindSpeedGustMPH,Humidity,HourlyPrecipIn,Conditions,Clouds,dailyrainin,SoftwareType,DateUTC
2013-01-11 00:04:00,45.0,-99.9,30.51,ESE,114,2.0,5.0,-999,-99.99,,,-99.99,,2013-01-11 05:04:00,
2013-01-11 00:13:00,45.0,-99.9,30.51,ESE,112,3.0,5.0,-999,-99.99,,,-99.99,,2013-01-11 05:13:00,
2013-01-11 00:23:00,45.0,-99.9,30.51,North,-999,-999.0,-999.0,-999,-99.99,,,-99.99,,2013-01-11 05:23:00,
2013-01-11 00:33:00,45.0,-99.9,30.50,ESE,121,2.0,7.0,-999,-99.99,,,-99.99,,2013-01-11 05:33:00,
2013-01-11 00:43:00,-999.0,-99.9,30.50,ESE,121,2.0,3.0,-999,-99.99,,,-99.99,,2013-01-11 05:43:00,
2013-01-11 00:53:00,45.0,-99.9,30.50,North,-999,-999.0,-999.0,-999,-99.99,,,-99.99,,2013-01-11 05:53:00,
2013-01-11 01:03:00,45.0,-99.9,30.50,SE,141,2.0,4.0,-999,-99.99,,,-99.99,,2013-01-11 06:03:00,
2013-01-11 01:12:00,-999.0,-99.9,30.50,SSE,148,3.0,4.0,-999,-99.99,,,-99.99,,2013-01-11 06:12:00,
2013-01-11 01:22:00,-999.0,-99.9,30.50,South,184,2.0,3.0,-999,-99.99,,,-99.99,,2013-01-11 06:22:00,
2013-01-11 01:33:00,42.0,-99.9,30.50,South,172,2.0,2.0,-999,-99.99,,,-99.99,,2013-01-11 06:33:00,
2013-01-11 01:42:00,42.0,-99.9,30.50,SSE,168,1.0,2.0,-999,-99.99,,,-99.99,,2013-01-11 06:42:00,
2013-01-11 01:52:00,-999.0,-99.9,30.50,SE,129,1.0,4.0,-999,-99.99,,,-99.99,,2013-01-11 06:52:00,
2013-01-11 02:02:00,43.0,-99.9,30.49,ESE,110,1.0,3.0,-999,-99.99,,,-99.99,,2013-01-11 07:02:00,
2013-01-11 02:12:00,-999.0,-99.9,30.49,SE,146,2.0,3.0,-999,-99.99,,,-99.99,,2013-01-11 07:12:00,
2013-01-11 02:22:00,44.0,-99.9,30.49,North,-999,-999.0,-999.0,-999,-99.99,,,-99.99,,2013-01-11 07:22:00,
2013-01-11 02:32:00,43.0,-99.9,30.49,SSE,162,2.0,4.0,-999,-99.99,,,-99.99,,2013-01-11 07:32:00,
2013-01-11 02:42:00,-999.0,-99.9,30.49,SSE,147,3.0,3.0,-999,-99.99,,,-99.99,,2013-01-11 07:42:00,
2013-01-11 02:53:00,-999.0,-99.9,30.49,SW,235,2.0,2.0,-999,-99.99,,,-99.99,,2013-01-11 07:53:00,
2013-01-11 03:02:00,42.0,-99.9,30.48,SE,126,2.0,2.0,-999,-99.99,,,-99.99,,2013-01-11 08:02:00,
2013-01-11 03:12:00,43.0,-99.9,30.47,SSE,147,2.0,3.0,-999,-99.99,,,-99.99,,2013-01-11 08:12:00,
2013-01-11 03:22:00,41.0,-99.9,30.47,North,-999,-999.0,-999.0,-999,-99.99,,,-99.99,,2013-01-11 08:22:00,
2013-01-11 03:32:00,40.0,-99.9,30.48,SW,234,1.0,2.0,-999,-99.99,,,-99.99,,2013-01-11 08:32:00,
2013-01-11 03:42:00,-999.0,-99.9,30.47,WSW,242,0.0,1.0,-999,-99.99,,,-99.99,,2013-01-11 08:42:00,
2013-01-11 03:53:00,40.0,-99.9,30.47,North,-999,-999.0,-999.0,-999,-99.99,,,-99.99,,2013-01-11 08:53:00,
2013-01-11 04:03:00,40.0,-99.9,30.46,ESE,103,2.0,2.0,-999,-99.99,,,-99.99,,2013-01-11 09:03:00,
2013-01-11 04:12:00,40.0,-99.9,30.46,North,-999,-999.0,-999.0,-999,-99.99,,,-99.99,,2013-01-11 09:12:00,
2013-01-11 04:23:00,38.0,-99.9,30.46,North,-999,-999.0,-999.0,-999,-99.99,,,-99.99,,2013-01-11 09:23:00,
2013-01-11 04:32:00,38.0,-99.9,30.45,ESE,114,2.0,2.0,-999,-99.99,,,-99.99,,2013-01-11 09:32:00,
2013-01-11 04:43:00,-999.0,-99.9,30.45,SSW,199,2.0,2.0,-999,-99.99,,,-99.99,,2013-01-11 09:43:00,
2013-01-11 04:53:00,38.0,-99.9,30.45,North,-999,-999.0,-999.0,-999,-99.99,,,-99.99,,2013-01-11 09:53:00,
2013-01-11 05:02:00,38.0,-99.9,30.45,SSE,150,1.0,2.0,-999,-99.99,,,-99.99,,2013-01-11 10:02:00,
2013-01-11 05:12:00,38.0,-99.9,30.44,South,172,1.0,2.0,-999,-99.99,,,-99.99,,2013-01-11 10:12:00,
2013-01-11 05:22:00,-999.0,-99.9,30.45,SSW,204,1.0,2.0,-999,-99.99,,,-99.99,,2013-01-11 10:22:00,
2013-01-11 05:32:00,38.0,-99.9,30.45,WSW,237,1.0,1.0,-999,-99.99,,,-99.99,,2013-01-11 10:32:00,
2013-01-11 05:43:00,38.0,-99.9,30.45,North,-999,-999.0,-999.0,-999,-99.99,,,-99.99,,2013-01-11 10:43:00,
2013-01-11 05:53:00,-999.0,-99.9,30.43,ESE,108,2.0,3.0,-999,-99.99,,,-99.99,,2013-01-11 10:53:00,
2013-01-11 06:03:00,40.0,-99.9,30.43,ESE,123,2.0,3.0,-999,-99.99,,,-99.99,,2013-01-11 11:03:00,
2013-01-11 06:12:00,40.0,-99.9,30.44,North,-999,-999.0,-999.0,-999,-99.99,,,-99.99,,2013-01-11 11:12:00,
2013-01-11 06:23:00,40.0,-99.9,30.44,North,-999,-999.0,-999.0,-999,-99.99,,,-99.99,,2013-01-11 11:23:00,
2013-01-11 06:33:00,40.0,-99.9,30.43,ESE,112,2.0,4.0,-999,-99.99,,,-99.99,,2013-01-11 11:33:00,
2013-01-11 06:43:00,40.0,-99.9,30.43,East,92,3.0,4.0,-999,-99.99,,,-99.99,,2013-01-11 11:43:00,
2013-01-11 06:53:00,-999.0,-99.9,30.43,East,97,3.0,3.0,-999,-99.99,,,-99.99,,2013-01-11 11:53:00,
2013-01-11 07:03:00,41.0,-99.9,30.42,East,88,4.0,4.0,-999,-99.99,,,-99.99,,2013-01-11 12:03:00,
2013-01-11 07:12:00,-999.0,-99.9,30.41,ESE,114,3.0,3.0,-999,-99.99,,,-99.99,,2013-01-11 12:12:00,
2013-01-11 07:23:00,-999.0,-99.9,30.42,ESE,116,2.0,4.0,-999,-99.99,,,-99.99,,2013-01-11 12:23:00,
2013-01-11 07:33:00,41.0,-99.9,30.41,East,97,2.0,4.0,-999,-99.99,,,-99.99,,2013-01-11 12:33:00,
2013-01-11 07:43:00,41.0,-99.9,30.41,North,-999,-999.0,-999.0,-999,-99.99,,,-99.99,,2013-01-11 12:43:00,
2013-01-11 07:53:00,41.0,-99.9,30.42,North,-999,-999.0,-999.0,-999,-99.99,,,-99.99,,2013-01-11 12:53:00,
2013-01-11 08:03:00,40.0,-99.9,30.42,South,175,1.0,2.0,-999,-99.99,,,-99.99,,2013-01-11 13:03:00,
2013-01-11 08:13:00,40.0,-99.9,30.42,SE,142,2.0,2.0,-999,-99.99,,,-99.99,,2013-01-11 13:13:00,
2013-01-11 08:23:00,-999.0,-99.9,30.41,East,95,3.0,5.0,-999,-99.99,,,-99.99,,2013-01-11 13:23:00,
2013-01-11 08:33:00,42.0,-99.9,30.40,East,97,3.0,4.0,-999,-99.99,,,-99.99,,2013-01-11 13:33:00,
2013-01-11 08:43:00,42.0,-99.9,30.41,North,-999,-999.0,-999.0,-999,-99.99,,,-99.99,,2013-01-11 13:43:00,
2013-01-11 08:53:00,41.0,-99.9,30.42,North,-999,-999.0,-999.0,-999,-99.99,,,-99.99,,2013-01-11 13:53:00,
2013-01-11 09:03:00,42.0,-99.9,30.40,ENE,59,4.0,5.0,-999,-99.99,,,-99.99,,2013-01-11 14:03:00,
2013-01-11 09:12:00,-999.0,-99.9,30.41,East,100,3.0,5.0,-999,-99.99,,,-99.99,,2013-01-11 14:12:00,
2013-01-11 09:23:00,-999.0,-99.9,30.41,East,92,4.0,5.0,-999,-99.99,,,-99.99,,2013-01-11 14:23:00,
2013-01-11 09:33:00,42.0,-99.9,30.40,East,98,2.0,4.0,-999,-99.99,,,-99.99,,2013-01-11 14:33:00,
2013-01-11 09:43:00,42.0,-99.9,30.40,SE,128,3.0,3.0,-999,-99.99,,,-99.99,,2013-01-11 14:43:00,
2013-01-11 09:53:00,42.0,-99.9,30.39,North,-999,-999.0,-999.0,-999,-99.99,,,-99.99,,2013-01-11 14:53:00,
2013-01-11 10:03:00,43.0,-99.9,30.39,SE,134,1.0,5.0,-999,-99.99,,,-99.99,,2013-01-11 15:03:00,
2013-01-11 10:13:00,43.0,-99.9,30.39,ESE,104,2.0,4.0,-999,-99.99,,,-99.99,,2013-01-11 15:13:00,
2013-01-11 10:23:00,-999.0,-99.9,30.38,SE,127,2.0,5.0,-999,-99.99,,,-99.99,,2013-01-11 15:23:00,
2013-01-11 10:33:00,44.0,-99.9,30.37,SE,137,4.0,5.0,-999,-99.99,,,-99.99,,2013-01-11 15:33:00,
2013-01-11 10:43:00,-999.0,-99.9,30.37,SE,130,3.0,5.0,-999,-99.99,,,-99.99,,2013-01-11 15:43:00,
2013-01-11 10:53:00,-999.0,-99.9,30.38,South,190,5.0,5.0,-999,-99.99,,,-99.99,,2013-01-11 15:53:00,
2013-01-11 11:03:00,43.0,-99.9,30.37,SSW,203,4.0,5.0,-999,-99.99,,,-99.99,,2013-01-11 16:03:00,
2013-01-11 11:13:00,43.0,-99.9,30.36,SSE,167,3.0,3.0,-999,-99.99,,,-99.99,,2013-01-11 16:13:00,
2013-01-11 11:23:00,43.0,-99.9,30.35,North,-999,-999.0,-999.0,-999,-99.99,,,-99.99,,2013-01-11 16:23:00,
2013-01-11 11:33:00,43.0,-99.9,30.35,SSW,198,1.0,3.0,-999,-99.99,,,-99.99,,2013-01-11 16:33:00,
2013-01-11 11:43:00,43.0,-99.9,30.33,SE,139,3.0,4.0,-999,-99.99,,,-99.99,,2013-01-11 16:43:00,
2013-01-11 11:53:00,43.0,-99.9,30.32,North,-999,-999.0,-999.0,-999,-99.99,,,-99.99,,2013-01-11 16:53:00,
2013-01-11 12:03:00,42.0,-99.9,30.31,SSE,161,3.0,4.0,-999,-99.99,,,-99.99,,2013-01-11 17:03:00,
2013-01-11 12:12:00,42.0,-99.9,30.31,North,-999,-999.0,-999.0,-999,-99.99,,,-99.99,,2013-01-11 17:12:00,
2013-01-11 12:23:00,-999.0,-99.9,30.30,SSE,155,1.0,2.0,-999,-99.99,,,-99.99,,2013-01-11 17:23:00,
2013-01-11 12:33:00,44.0,-99.9,30.29,SE,140,2.0,2.0,-999,-99.99,,,-99.99,,2013-01-11 17:33:00,
2013-01-11 12:43:00,-999.0,-99.9,30.29,South,182,0.0,1.0,-999,-99.99,,,-99.99,,2013-01-11 17:43:00,
2013-01-11 12:53:00,44.0,-99.9,30.28,North,-999,-999.0,-999.0,-999,-99.99,,,-99.99,,2013-01-11 17:53:00,
2013-01-11 13:04:00,44.0,-99.9,30.27,South,182,3.0,3.0,-999,-99.99,,,-99.99,,2013-01-11 18:04:00,
2013-01-11 13:13:00,43.0,-99.9,30.26,SSW,212,3.0,4.0,-999,-99.99,,,-99.99,,2013-01-11 18:13:00,
2013-01-11 13:24:00,44.0,-99.9,30.26,North,-999,-999.0,-999.0,-999,-99.99,,,-99.99,,2013-01-11 18:24:00,
2013-01-11 13:33:00,44.0,-99.9,30.25,SSE,152,2.0,3.0,-999,-99.99,,,-99.99,,2013-01-11 18:33:00,
2013-01-11 13:43:00,44.0,-99.9,30.25,North,-999,-999.0,-999.0,-999,-99.99,,,-99.99,,2013-01-11 18:43:00,
2013-01-11 13:53:00,-999.0,-99.9,30.24,SSW,210,2.0,3.0,-999,-99.99,,,-99.99,,2013-01-11 18:53:00,
2013-01-11 14:03:00,44.0,-99.9,30.23,SSE,167,2.0,3.0,-999,-99.99,,,-99.99,,2013-01-11 19:03:00,
2013-01-11 14:13:00,44.0,-99.9,30.22,North,-999,-999.0,-999.0,-999,-99.99,,,-99.99,,2013-01-11 19:13:00,
2013-01-11 14:23:00,44.0,-99.9,30.23,North,-999,-999.0,-999.0,-999,-99.99,,,-99.99,,2013-01-11 19:23:00,
2013-01-11 14:33:00,45.0,-99.9,30.23,SSW,213,4.0,4.0,-999,-99.99,,,-99.99,,2013-01-11 19:33:00,
2013-01-11 14:43:00,43.0,-99.9,30.22,South,176,5.0,6.0,-999,-99.99,,,-99.99,,2013-01-11 19:43:00,
2013-01-11 14:54:00,-999.0,-99.9,30.21,SSE,166,7.0,7.0,-999,-99.99,,,-99.99,,2013-01-11 19:54:00,
2013-01-11 15:03:00,43.0,-99.9,30.20,South,176,4.0,6.0,-999,-99.99,,,-99.99,,2013-01-11 20:03:00,
2013-01-11 15:13:00,44.0,-99.9,30.21,North,-999,-999.0,-999.0,-999,-99.99,,,-99.99,,2013-01-11 20:13:00,
2013-01-11 15:23:00,44.0,-99.9,30.20,North,-999,-999.0,-999.0,-999,-99.99,,,-99.99,,2013-01-11 20:23:00,
2013-01-11 15:33:00,43.0,-99.9,30.20,South,184,2.0,3.0,-999,-99.99,,,-99.99,,2013-01-11 20:33:00,
2013-01-11 15:43:00,43.0,-99.9,30.20,North,-999,-999.0,-999.0,-999,-99.99,,,-99.99,,2013-01-11 20:43:00,
2013-01-11 15:53:00,-999.0,-99.9,30.20,SSW,196,2.0,3.0,-999,-99.99,,,-99.99,,2013-01-11 20:53:00,
2013-01-11 16:03:00,42.0,-99.9,30.19,SSE,164,1.0,2.0,-999,-99.99,,,-99.99,,2013-01-11 21:03:00,
2013-01-11 16:13:00,42.0,-99.9,30.19,SE,132,1.0,2.0,-999,-99.99,,,-99.99,,2013-01-11 21:13:00,
2013-01-11 16:23:00,42.0,-99.9,30.18,North,-999,-999.0,-999.0,-999,-99.99,,,-99.99,,2013-01-11 21:23:00,
2013-01-11 16:33:00,42.0,-99.9,30.18,North,-999,-999.0,-999.0,-999,-99.99,,,-99.99,,2013-01-11 21:33:00,
2013-01-11 16:43:00,42.0,-99.9,30.18,West,260,-999.0,2.0,-999,-99.99,,,-99.99,,2013-01-11 21:43:00,
2013-01-11 16:53:00,42.0,-99.9,30.18,North,-999,-999.0,-999.0,-999,-99.99,,,-99.99,,2013-01-11 21:53:00,
2013-01-11 17:03:00,42.0,-99.9,30.17,SE,146,1.0,1.0,-999,-99.99,,,-99.99,,2013-01-11 22:03:00,
2013-01-11 17:13:00,-999.0,-99.9,30.16,SE,135,2.0,3.0,-999,-99.99,,,-99.99,,2013-01-11 22:13:00,
2013-01-11 17:23:00,-999.0,-99.9,30.16,SSE,168,1.0,1.0,-999,-99.99,,,-99.99,,2013-01-11 22:23:00,
2013-01-11 17:33:00,42.0,-99.9,30.16,SSE,168,-999.0,1.0,-999,-99.99,,,-99.99,,2013-01-11 22:33:00,
2013-01-11 17:43:00,42.0,-99.9,30.16,North,-999,-999.0,-999.0,-999,-99.99,,,-99.99,,2013-01-11 22:43:00,
2013-01-11 17:53:00,42.0,-99.9,30.15,North,-999,-999.0,-999.0,-999,-99.99,,,-99.99,,2013-01-11 22:53:00,
2013-01-11 18:03:00,42.0,-99.9,30.15,North,-999,-999.0,-999.0,-999,-99.99,,,-99.99,,2013-01-11 23:03:00,
2013-01-11 18:13:00,42.0,-99.9,30.14,North,-999,-999.0,-999.0,-999,-99.99,,,-99.99,,2013-01-11 23:13:00,
2013-01-11 18:23:00,42.0,-99.9,30.15,North,-999,-999.0,-999.0,-999,-99.99,,,-99.99,,2013-01-11 23:23:00,
2013-01-11 18:33:00,42.0,-99.9,30.15,WNW,282,1.0,1.0,-999,-99.99,,,-99.99,,2013-01-11 23:33:00,
2013-01-11 18:43:00,42.0,-99.9,30.15,North,-999,-999.0,-999.0,-999,-99.99,,,-99.99,,2013-01-11 23:43:00,
2013-01-11 18:54:00,42.0,-99.9,-100.00,North,-999,-999.0,-999.0,-999,-99.99,,,-99.99,,2013-01-11 23:54:00,
2013-01-11 19:03:00,42.0,-99.9,30.14,North,-999,-999.0,-999.0,-999,-99.99,,,-99.99,,2013-01-12 00:03:00,
2013-01-11 19:13:00,42.0,-99.9,30.14,North,-999,-999.0,-999.0,-999,-99.99,,,-99.99,,2013-01-12 00:13:00,
2013-01-11 19:23:00,42.0,-99.9,30.14,North,-999,-999.0,-999.0,-999,-99.99,,,-99.99,,2013-01-12 00:23:00,
2013-01-11 19:33:00,42.0,-99.9,30.14,North,-999,-999.0,-999.0,-999,-99.99,,,-99.99,,2013-01-12 00:33:00,
2013-01-11 19:43:00,43.0,-99.9,-100.00,North,-999,-999.0,-999.0,-999,-99.99,,,-99.99,,2013-01-12 00:43:00,
2013-01-11 19:53:00,42.0,-99.9,30.13,North,-999,-999.0,-999.0,-999,-99.99,,,-99.99,,2013-01-12 00:53:00,
2013-01-11 20:03:00,43.0,-99.9,30.13,SSE,160,2.0,2.0,-999,-99.99,,,-99.99,,2013-01-12 01:03:00,
2013-01-11 20:13:00,-999.0,-99.9,30.13,SSE,156,2.0,2.0,-999,-99.99,,,-99.99,,2013-01-12 01:13:00,
2013-01-11 20:23:00,43.0,-99.9,30.12,North,-999,-999.0,-999.0,-999,-99.99,,,-99.99,,2013-01-12 01:23:00,
2013-01-11 20:33:00,43.0,-99.9,30.12,SSE,168,4.0,4.0,-999,-99.99,,,-99.99,,2013-01-12 01:33:00,
2013-01-11 20:43:00,42.0,-99.9,30.12,South,178,2.0,4.0,-999,-99.99,,,-99.99,,2013-01-12 01:43:00,
2013-01-11 20:53:00,42.0,-99.9,30.12,North,-999,-999.0,-999.0,-999,-99.99,,,-99.99,,2013-01-12 01:53:00,
2013-01-11 21:03:00,42.0,-99.9,30.12,SSW,200,-999.0,1.0,-999,-99.99,,,-99.99,,2013-01-12 02:03:00,
2013-01-11 21:12:00,43.0,-99.9,30.12,ESE,122,0.0,1.0,-999,-99.99,,,-99.99,,2013-01-12 02:12:00,
2013-01-11 21:22:00,-999.0,-99.9,30.12,SW,217,1.0,3.0,-999,-99.99,,,-99.99,,2013-01-12 02:22:00,
2013-01-11 21:33:00,43.0,-99.9,30.11,SSE,148,2.0,4.0,-999,-99.99,,,-99.99,,2013-01-12 02:33:00,
2013-01-11 21:43:00,-999.0,-99.9,30.11,SSE,160,1.0,2.0,-999,-99.99,,,-99.99,,2013-01-12 02:43:00,
2013-01-11 21:53:00,-999.0,-99.9,30.11,SW,215,1.0,1.0,-999,-99.99,,,-99.99,,2013-01-12 02:53:00,
2013-01-11 22:03:00,42.0,-99.9,30.12,WNW,294,2.0,3.0,-999,-99.99,,,-99.99,,2013-01-12 03:03:00,
2013-01-11 22:12:00,-999.0,-99.9,30.12,NNW,335,1.0,1.0,-999,-99.99,,,-99.99,,2013-01-12 03:12:00,
2013-01-11 22:22:00,43.0,-99.9,30.11,North,-999,-999.0,-999.0,-999,-99.99,,,-99.99,,2013-01-12 03:22:00,
2013-01-11 22:33:00,43.0,-99.9,30.12,SSW,213,2.0,2.0,-999,-99.99,,,-99.99,,2013-01-12 03:33:00,
2013-01-11 22:43:00,42.0,-99.9,30.11,South,183,3.0,4.0,-999,-99.99,,,-99.99,,2013-01-12 03:43:00,
2013-01-11 22:53:00,-999.0,-99.9,30.11,SSE,154,2.0,4.0,-999,-99.99,,,-99.99,,2013-01-12 03:53:00,
2013-01-11 23:03:00,42.0,-99.9,30.11,SSW,202,2.0,3.0,-999,-99.99,,,-99.99,,2013-01-12 04:03:00,
2013-01-11 23:12:00,-999.0,-99.9,30.11,SSW,205,0.0,2.0,-999,-99.99,,,-99.99,,2013-01-12 04:12:00,
2013-01-11 23:22:00,43.0,-99.9,30.11,North,-999,-999.0,-999.0,-999,-99.99,,,-99.99,,2013-01-12 04:22:00,
2013-01-11 23:33:00,43.0,-99.9,30.11,WNW,283,4.0,5.0,-999,-99.99,,,-99.99,,2013-01-12 04:33:00,
2013-01-11 23:43:00,-999.0,-99.9,30.11,WNW,284,5.0,7.0,-999,-99.99,,,-99.99,,2013-01-12 04:43:00,
2013-01-11 23:53:00,-999.0,-99.9,30.10,WNW,284,3.0,5.0,-999,-99.99,,,-99.99,,2013-01-12 04:53:00,